Other Surface Observations
Issued by NWS Tucson, AZ

Home | Current Version | Previous Version | Text Only | Print | Product List | Glossary On
Versions: 1 2 3 4 5 6 7 8 9 10 11 12 13 14 15 16 17 18 19 20 21 22 23 24 25 26 27 28 29 30 31 32 33 34 35 36 37 38 39 40 41 42 43 44 45 46 47 48 49 50
000
SXUS55 KTWC 310016
OSOTWC

WEATHER ROUNDUP FOR SOUTHEAST ARIZONA
NATIONAL WEATHER SERVICE TUCSON AZ
515 PM MST SAT AUG 30 2014

AZZ504>506-514-310115-
LOCATION       SKY/WX    TMP DP  RH WIND       PRES   REMARKS
TUCSON         SUNNY    103  36  10 W10G17    29.85F
DAVIS-MONTHAN  SUNNY    100  40  12 W5        29.83F
CHILDRENS PARK N/A      102  40  12 SW4               PIMA CO DEQ
ALVERNON/22ND  N/A      N/A N/A N/A N/A               PIMA CO DEQ
CHERRY/GLENN   N/A      N/A N/A N/A N/A               PIMA CO DEQ
TANGERINE      N/A      102 N/A N/A S7                PIMA CO DEQ
CONTL RANCH    N/A      106  41  11 SW4               PIMA CO DEQ
GRANT/1ST      N/A      103  38  11 NW2               PIMA CO DEQ
CRAYCROFT/22ND N/A      N/A N/A N/A N/A               PIMA CO DEQ
GOLFLINKS/KOLB N/A      N/A N/A N/A N/A               PIMA CO DEQ
AJO/12TH       N/A      103  38  11 SW5               PIMA CO DEQ
SAGUARO EAST   N/A      N/A N/A N/A N/A               PIMA CO DEQ
FAIRGROUNDS    N/A      102 N/A N/A W8                PIMA CO DEQ
SAGUARO        N/A      104  37  10 S4G17             *SABINO CYN
SAN CARLOS     N/A      102  40  12 SW5G12            *SAN CARLOS
GREEN VALLEY   N/A      101  39  12 W8                PIMA CO DEQ
HORSE CAMP CYN N/A       96  37  13 W12G24            *ARAVAIPA CYN
RINCON MTNS    N/A       80  40  24 SW3G10            *NR MANNING CAMP
$$

AZZ509>511-310115-
LOCATION       SKY/WX    TMP DP  RH WIND       PRES   REMARKS
SAFFORD        SUNNY     99  41  13 CALM      29.86F
STRAY HORSE    N/A       76  36  23 W10G15            *
TRAIL CABIN    N/A       86  39  19 SW5G13            *N OF GRANVILLE
BLACK HILLS    N/A       99  40  13 NW7G16            *N OF FT THOMAS
DRY LAKE       N/A       81  43  26 SW3G10            *NATANES MTNS
NOON CREEK     N/A       91  43  19 SW5G10            *PINALENO MTNS
COLUMBINE      N/A       69  40  35 S7G14             *PINALENO MTNS
GUTHRIE        N/A       86  35  16 SW13G25           *SW OF GUTHRIE
$$

AZZ502-503-513-310115-
LOCATION       SKY/WX    TMP DP  RH WIND       PRES   REMARKS
NOGALES        SUNNY     93  49  22 SW8       29.97S
SELLS          N/A      105  40  11 S7G17             *
SASABE         N/A       98  41  14 SW5G13            *ALTAR VLY
HOPKINS        N/A       83  45  26 SW7G14            *SANTA RITA MTNS
CARR CYN       N/A       86  45  24 S2                *W OF HEREFORD
$$

AZZ507-508-512-310115-
LOCATION       SKY/WX    TMP DP  RH WIND       PRES   REMARKS
SIERRA VISTA   MOSUNNY   92  42  17 NW5       30.03S
DOUGLAS        SUNNY     93  50  23 SW6       29.98F
EMPIRE MTNS    N/A       93  42  17 E6G11             *LAS CIENEGAS NCA
MULESHOE RANCH N/A       94  39  15 N4G15             *PRESERVE
HEADQUARTERS   N/A       88  46  23 W6G15             *CHIRICAHUA MTNS
$$

.............................NOTES.............................
THIS IS AN AUTOMATED COLLECTIVE WITH MINIMAL QUALITY CONTROL.
PIMA CO DEQ SITES HAVE NONSTANDARD WIND SENSOR HEIGHTS.
PIMA CO DEQ SITES DO NOT REPORT WIND GUSTS.
* INDICATES WIND SENSORS LOCATED AT 20 FEET INSTEAD OF 33 FEET.
..............................KEY..............................
SKY/WX - SKY CONDITION/WEATHER
TMP    - TEMPERATURE IN FAHRENHEIT
DP     - DEWPOINT IN FAHRENHEIT
RH     - RELATIVE HUMIDITY IN PERCENT
WIND   - DIRECTION AND SPEED IN MILES PER HOUR (MPH)
VRB    - VARIABLE WIND DIRECTION
PRES   - MEAN SEA LEVEL PRESSURE IN INCHES OF MERCURY
         F - FALLING PRESSURE   R - RISING PRESSURE
         S - STEADY PRESSURE
VSB    - VISIBILITY IN MILES
HX     - HEAT INDEX IN FAHRENHEIT
WCI    - WIND CHILL INDEX IN FAHRENHEIT
N/A    - NOT AVAILABLE
AFB    - AIR FORCE BASE
         DAVIS-MONTHAN IS DAVIS-MONTHAN AIR FORCE BASE
CYN    - CANYON
MTNS   - MOUNTAINS
NCA    - NATIONAL CONSERVATION AREA
NR     - NEAR
VLY    - VALLEY
CONTL  - CONTINENTAL
PIMA CO DEQ - PIMA COUNTY DEPT OF ENVIRONMENTAL QUALITY



USA.gov is the U.S. government's official web portal to all federal, state and local government web resources and services.